Погода в Бобруйске

Погода в Бобруйске : погода сейчас, прогноз погоды и архив. Всё, что Вы хотите узнать о погоде в Бобруйске!

Хотите узнать прогноз погоды в Бобруйске? Тогда Вам сюда: Погода в Бобруйске

Поиск расширенной информации на нашем сайте:

Другие новости

Новости СМИ2

Главная страница сайта

Новости сайта

02.10.2013

Напоминаем, что на нашем новом сайте вы можете получить высокодетализированные прогнозы погоды по пунктам России, СНГ и мира (включающие важные для авиации метеовеличины, такие как направление и скорость ветра, видимость, явления погоды, количество и форма облачности, нижняя и верхняя граница облачности), а также ознакомиться с разнообразными материалами по авиационной метеорологии и подборкой полезных ссылок на эту тему.

Сайт Метеоцентр.Азия посвящён разработке технологий оптимизации авиаметеорологического обслуживания, включая проектирование и перспективное создание нескольких автоматизированных авиаметеорологических систем:
- система выпуска высокодетальных прогностических карт явлений погоды для нижнего воздушного пространства по России и ближнему зарубежью;
- система верификации прогнозов TAF (выпускаемых синоптиками официальных АМСГ РФ и ближнего зарубежья) и AUTOTAF (выпускаемых сайтом Метеоцентр.Азия) - выявление ошибок, онлайн-сопоставление с фактической погодой METAR, автоматическое внесение коррективов в прогнозы при резком отклонении фактической погоды от прогноза, подсчёт оправдываемости прогнозов по элементам и в целом;
- система обработки, анализа и отображения авиаметеорологической информации для применения провайдерами метеорологической информации.

Рекомендуем: для вашего бизнеса покупка офиса в бц Ринко Плаза Тимура Фрунзе ул., 24

Погода в Бобруйске - сегодня

Время (UTC), дата Ветер
(°,м/с) 
Видим.   Явления Облачность Т
(°С)
Тd
(°С)
f(%) Тe
(°С)
Pmin
(гПа)
dP
(гПа)
Po
(мм)
O2
(г/м3)
Тmin Tmax R s Состояние
почвы
15 25.05.17 210 (ЮЗ) 12000 м  в посл. час ливневой дождь  9/8 540 м кучево-дожд., средняя 
[Cb calv|Ac und]
+16.1 +12.8 81 +22  1012.7  0.2  746  281      0.7     
18 25.05.17 210 (ЮЗ) 12000 м  {ливн. осадки}  8/0 средняя 
[Ac trans]
+15.7 +13 84 +23  1012.6  -0.1  746  282    +19.8  0.7     
21 25.05.17 200 (Ю) 7000 м  дымка  ясно 
+11.4 +10.6 95 +15  1013.3  0.3  746  287           
00 26.05.17 тихо ()   1600 м  дымка  ясно 
+7.2 +6.8 97 +7  1013.7  0.1  746  292           
03 26.05.17 250 (З) 4600 м  дымка  4/0 средняя 
[Ac trans]
+8.1 +7.6 97 +9  1013.6  746  291           
06 26.05.17 340 (С) 15000 м    3/0 верхняя 
[Ci fib]
+15.7 +8.6 63 +16  1013.3  0.2  746  283  +5.8         
09 26.05.17 320 (СЗ) 20000 м    8/4 600 м средняя 
[Cu med, cong|Ac trans]
+19.7 +8.3 48 +20  1012.9  -0.2  746  279           
12 26.05.17 350 (С) 6-10{10}  20000 м    8/5 600 м верхняя 
[Cu med, cong|Ci fib]
+20.2 +8.2 46 +20  1012.6  -0.3  746  278           
15 26.05.17 330 (СЗ) 5{11}  20000 м    8/4 600 м средняя 
[Cu hum|Ac trans]
+18.1 +7 48 +18  1012.5  -0.1  746  281           
18 26.05.17 010 (С) 20000 м    8/5 600 м средняя 
[Sc|Ac trans]
+16 +6.2 52 +16  1013.5  0.9  746  283    +21       
21 26.05.17 340 (С) 10 км    9/0 средняя 
[Ac As]
+14 +7.2 64 +15  1014.8  1.1  747  285           
00 27.05.17 350 (С) 10 км    3/0 верхняя 
[Ci fib]
+9.9 +5.6 75 +10  1016.6  1.4  748  290           
09 27.05.17 060 (СВ) 3{10}  20000 м    8/8 840 м 
[Cu med, cong]
+17.2 +6.3 49 +18  1018.6  0.6  750  283           
15 27.05.17 360 (С) 20000 м    8/4 600 м верхняя 
[Cu hum|Ci fib]
+19.6 +3.6 35 +20  1018.6  750  281           
18 27.05.17 240 (ЮЗ) 20000 м    6/3 600 м верхняя 
[Cu hum|Ci fib]
+15.8 +7.6 58 +17  1019.2  0.4  750  285    +20.3       
21 27.05.17 250 (З) 15000 м    3/0 верхняя 
[Ci fib]
+10.8 +6.3 74 +12  1020.4  0.9  751  290           
09 28.05.17 290 (З) 7-11{12}  20000 м    3/1 600 м верхняя 
[Cu hum|Ci fib]
+21 +9.3 47 +21  1019.2  -0.6  751  279           
15 28.05.17 310 (СЗ) 20000 м    8/5 600 м верхняя 
[Cu med, cong|Ci fib]
+24.7 +9.1 37 +25  1017.9  -0.6  750  276           
18 28.05.17 310 (СЗ) 20000 м    3/0 верхняя 
[Ci fib]
+20.3 +11.4 57 +23  1017.7  -0.5  750  279    +25       
21 28.05.17 240 (ЮЗ) 10 км    ясно 
+16.9 +10.7 67 +20  1017.7  -0.2  749  282           
00 29.05.17 250 (З) 10 км    4/0 верхняя 
[Ci fib]
+15.1 +10.1 72 +17  1016.5  -1.3  748  284           
09 29.05.17 250 (З) 7-12{15}  20000 м    5/3 600 м верхняя 
[Cu hum|Ci fib]
+23.8 +10.7 44 +26  1011.2  -1.9  745  274           
12 29.05.17 230 (ЮЗ) 6-11{16}  20000 м    9/0 средняя 
[Ac trans]
+23.4 +9.7 42 +24  1009.2  -2  743  274           
15 29.05.17 240 (ЮЗ) 6-11{13}  20000 м    9/5 300 м кучево-дожд., средняя 
[Cb calv|Ac trans]
+24.4 +8.7 37 +24  1006.9  -2.2  742  273           
18 29.05.17 250 (З) 5{15}  18000 м  в посл. час гроза{ливн. осадки}  8/4 300 м кучево-дожд., средняя 
[Cb calv|Ac trans]
+21.5 +12.8 58 +27  1006.6  -0.5  741  274    +26  0.6     
Время (UTC), дата Ветер
(°,м/с) 
Видим.   Явления Облачность Т
(°С)
Тd
(°С)
f(%) Тe
(°С)
Pmin
(гПа)
dP
(гПа)
Po
(мм)
O2
(г/м3)
Тmin Tmax R s Состояние
почвы

Для получения пояснительной информации подведите курсор к названию столбца.

ПОГОДА в Бобруйске - архив

Всё, что Вы хотите узнать о погоде в Бобруйске - удобно и подробно!

Выберите нужную дату (начиная с 1 января 2015* года) и нажмите кнопку "Найти".
Будут отображены архивные сводки погоды по пункту Бобруйск, начиная с указанной даты.


Отображать данные в формате CSV (для использования в таблицах Excel)


Внимание! Наш архив погоды предназначен исключительно для личного некоммерческого использования в познавательных целях. Если Вам необходимы официальные справки о состоянии погоды (для производственных, юридических, коммерческих и т.п. целей), обращайтесь в органы Росгидромета.

*Примечание: данная дата относится к архиву по метеостанциям СССР (Россия, СНГ, Балтия).
Архив по метеостанциям Зарубежной Европы и Азии (кроме Китая) хранится 10 дней, по другим регионам земного шара (Китай, Африка, Америка, Австралия, Океания) - 1 день.

Бобруйск - район местоположения метеостанции


Название, широта, долгота, высота метеостанции:
Бобруйск 53.2°ш. 29.2°д. 156 м над ур. моря [Беларусь]

Дополнительная информация

В oтличие oт бoльшинства пoгoдных сайтoв мы публикуем пoдрoбную метеoинфoрмацию в детальнoм прoфессиoнальнoм фoрмате.

Характеристики температуры и влажнoсти вoздуха измеряются на высoте 2 м в тени вдали oт зданий и деревьев.
Скoрoсть ветра измеряется на высoте 10 м (на урoвне рoста челoвека скoрoсть ветра ниже в 1.5-2 раза). Если метеoстанция нахoдится в гoрoде или в лесу, тo скoрoсть ветра занижена на 2-4 м/с пo сравнению с oткрытым местoм. Скoрoсть ветра над акватoриями крупных рек и oзёр, а также на вершинах хoлмoв на 2-5 м/с выше, чем в oбычных услoвиях.
Атмoсфернoе давление в разных тoчках местнoсти мoжет значительнo oтличаться oт давления на метеoстанции, в зависимoсти oт услoвий рельефа (при пoдъёме на 10 м давление пoнижается примернo на 1 мм рт.ст.).